Regional Weather Roundup
Issued by NWS

Home | Current Version | Previous Version | Graphics & Text | Print | Product List | Glossary On
Versions: 1 2 3 4 5 6 7 8 9 10 11 12 13 14 15 16 17 18 19 20 21 22 23 24 25 26 27 28 29 30 31 32 33 34 35 36 37 38 39 40 41 42 43 44 45 46 47 48 49 50
000
ASUS45 KBOU 211310
RWRCO

WEATHER ROUNDUP FOR COLORADO
NATIONAL WEATHER SERVICE PUEBLO CO
600 AM MST WED FEB 21 2018

NOTE: "FAIR" INDICATES FEW OR NO CLOUDS BELOW 12000 FEET WITH NO
SIGNIFICANT WEATHER AND/OR OBSTRUCTIONS TO VISIBILITY.

COZ001>005-013-030-031-211400-
...NORTHWEST COLORADO...

CITY           SKY/WX    TMP DP  RH WIND       PRES   REMARKS
CRAIG          PTCLDY   -16 -22  74 CALM      30.14S
HAYDEN         PTCLDY    -3  -9  75 E15       30.11S WCI -23
MEEKER         CLEAR    -11 -17  75 CALM      30.11S
RABBIT EARS PA NOT AVBL
STEAMBOAT SPGS   N/A     -9 -13  82 CALM      30.10R
WALDEN         FAIR      -8 -13  77 SE8       30.04R WCI -23
$$

COZ006>008-011-211400-
...WEST CENTRAL VALLEYS...

CITY           SKY/WX    TMP DP  RH WIND       PRES   REMARKS
GRAND JUNCTION CLEAR    N/A N/A N/A E15       30.15S
MONTROSE       CLEAR      6   1  80 SE3       30.18S
EAGLE          PTCLDY     1  -3  83 CALM      30.18R
RIFLE          CLEAR      6   2  83 E3        30.17R
DELTA          NOT AVBL
NUCLA          FAIR      10   3  72 SE6       30.15S WCI   1
$$

COZ017>023-064>068-211400-
...SOUTHWEST COLORADO...

CITY           SKY/WX    TMP DP  RH WIND       PRES   REMARKS
DURANGO        CLEAR     10   4  76 CALM      30.11S
CORTEZ         CLEAR      6   2  83 CALM      30.11R
PAGOSA SPRINGS FAIR       1  -3  84 CALM      30.11R
TELLURIDE      PTCLDY    11  -4  50 CALM      30.01F
WOLF CREEK PAS   N/A      0  -4  85 S16G23    29.99R WCI -21
$$

COZ009-010-012-014-032>034-037-058>063-211400-
...CENTRAL COLORADO...

CITY           SKY/WX    TMP DP  RH WIND       PRES   REMARKS
ASPEN          CLEAR     -4 -10  75 S8        30.05S WCI -19
BUENA VISTA    FAIR      -1 -11  63 NW7       30.09R WCI -14
COPPER MTN     CLEAR      1 -15  46 S16G22    29.87S WCI -18
BERTHOUD PASS  FAIR      -9 -20  59 W17       29.82R WCI -33
COTTONWOOD PAS CLEAR     12  -6  44 W3        29.98S
GUNNISON       CLEAR     -3  -9  75 NE5       30.15R WCI -13
KREMMLING      CLOUDY     3  -4  72 CALM      30.13R
LEADVILLE      CLEAR    -18 -22  82 VRB3      29.96R
MONARCH PASS   CLEAR     -4  -8  84 SW23      30.00R WCI -29
SALIDA         FAIR       8  -1  69 N12       30.17R WCI  -8
SUNLIGHT       CLEAR     -4  -8  84 SW12G20   29.97R WCI -22
WILKERSON PASS PTCLDY    -2  -8  78 SW20G28   29.90R WCI -25
$$

COZ069>075-211400-
...SAN LUIS VALLEY/SANGRE DE CRISTO MOUNTAINS...

CITY           SKY/WX    TMP DP  RH WIND       PRES   REMARKS
ALAMOSA        PTCLDY     1  -5  75 NW7       30.11R WCI -12
DEL NORTE      FAIR       2  -7  66 W14       30.11R WCI -16
LA VETA PASS   LGT SNOW   9   5  85 S26G39    30.08R WCI -13
SAGUACHE       CLEAR      1  -6  71 NW13      30.12R WCI -16
$$

COZ035-036-038>040-211400-
...NORTHERN COLORADO FRONT RANGE...

CITY           SKY/WX    TMP DP  RH WIND       PRES   REMARKS
DENVER INTL AP PTCLDY     1  -4  79 SW3       30.18R
DMNS CITY PARK NOT AVBL
AURORA         PTCLDY    -1  -4  85 CALM      30.17R
FRONT RANGE AP FAIR       0  -5  80 W3        30.18S
ERIE MUNI ARPT FAIR      -8 -13  80 CALM      30.27R
BOULDER MUN AP FAIR       3   0  85 SE3       30.18S
CENTENNIAL     CLEAR      4   1  88 CALM      30.14R
BROOMFIELD     CLEAR      3   1  92 CALM      30.17S
LOVELAND       CLEAR     -1  -5  82 S7        30.22S WCI -14
LONGMONT       FAIR      -3  -8  77 CALM      30.24R
$$

COZ041-046-047-076>085-087-088-211400-
...PIKES PEAK/PALMER DIVIDE AND SOUTHERN FOOTHILLS...

CITY           SKY/WX    TMP DP  RH WIND       PRES   REMARKS
COLO. SPRINGS  PTCLDY     2  -2  83 N6        30.17R WCI  -9
A. F. ACADEMY  PTCLDY    -7 -13  77 N9        30.14R WCI -24
SCHRIEVER AFB  NOT AVBL
CHEYENNE MTN   NOT AVBL
ELLICOTT         N/A    N/A N/A N/A NE3         N/A
FALCON         FAIR       1  -2  87 MISG      30.13R
FORT CARSON    CLEAR      6   1  80 N10       30.17R WCI  -9
LIMON          CLEAR     -5  -8  87 N6        30.21R WCI -18
MONUMENT HILL  CLEAR      1  -4  78 S14       30.11R WCI -17
CANON CITY     FLURRIES  12   9  85 CALM      30.21R
WALSENBURG     FAIR       9   7  92 W3        30.18R
TRINIDAD       CLEAR      5   0  79 NW8       30.19R WCI  -8
$$

COZ042>045-048>051-090-091-211400-
...NORTHEAST COLORADO...

CITY           SKY/WX    TMP DP  RH WIND       PRES   REMARKS
GREELEY ARPT   CLEAR    -14 -17  87 CALM      30.26R
AKRON          CLEAR     10   0  63 S9        30.23R WCI  -3
BURLINGTON     CLEAR     -6 -10  83 W6        30.30R WCI -19
WRAY           FAIR       3   0  85 W6        30.32S WCI  -8
YUMA           NOT AVBL
STERLING       FAIR      -6  -9  84 CALM      30.28R
HOLYOKE        FAIR       1  -4  78 W6        30.31R WCI -10
FORT MORGAN    FAIR       1  -3  83 W5        30.25R WCI  -8
$$

COZ086-089-092>099-211400-
...SOUTHEAST COLORADO...

CITY           SKY/WX    TMP DP  RH WIND       PRES   REMARKS
PUEBLO         CLEAR      5   1  83 CALM      30.27R
LA JUNTA       CLEAR      4  -1  80 SW8       30.31R WCI  -9
LAMAR          CLEAR      1  -5  75 S6        30.35R WCI -10
SPRINGFIELD      N/A      8   1  73 CALM      30.29R
$$




USA.gov is the U.S. government's official web portal to all federal, state and local government web resources and services.